Wind_Speed
18 18 17 17 17 16 16 15 15 14 14 14 13 13 13 13 12 12 12 12 12 11 11 11 11 11 11 11 11 10 10 11 11 11 11 11 10 10 10 10 10 10 10
20 20 19 18 18 18 17 17 16 16 16 15 15 14 15 15 14 14 14 14 14 14 14 13 13 13 13 13 13 12 12 12 13 13 13 13 12 12 12 11 11 12 12
21 21 21 21 20 20 19 18 18 18 17 17 16 16 16 16 16 16 16 16 16 16 16 15 15 15 14 15 15 15 15 14 15 14 14 14 14 14 14 13 13 13 13
22 22 22 22 22 22 22 21 20 20 19 19 18 18 18 18 18 17 18 17 17 17 17 17 17 16 16 16 16 16 17 17 16 16 16 16 16 15 15 15 15 15 15
23 23 24 24 24 24 24 23 22 22 21 21 21 20 20 20 20 20 20 19 19 19 19 19 18 19 18 18 18 18 19 19 19 18 18 18 17 17 17 17 17 17 18
25 25 25 25 25 25 25 25 24 24 24 23 23 23 22 22 22 22 22 22 22 21 21 21 21 21 21 21 21 21 21 21 21 20 19 20 19 20 20 20 20 19 19
27 27 27 27 27 27 26 26 26 26 25 25 25 24 24 24 24 24 24 24 24 24 24 24 24 23 23 23 23 23 23 23 22 22 21 21 21 21 22 22 21 21 22
30 29 29 29 29 29 28 28 28 28 27 27 27 26 26 26 26 26 26 26 26 26 26 26 26 26 25 25 25 25 25 25 24 24 23 23 23 23 23 23 23 23 23
31 31 31 31 31 31 31 30 30 30 30 29 29 29 28 28 28 28 28 28 28 28 28 28 28 28 28 28 27 27 27 27 26 26 26 26 25 25 25 26 25 25 25
33 33 33 33 33 33 32 32 32 31 31 31 31 31 31 30 30 30 30 30 30 30 30 30 30 30 30 30 30 29 29 28 28 28 28 28 28 28 27 27 27 27 27
34 34 34 34 34 34 34 34 33 33 33 33 33 33 33 32 32 32 32 32 32 33 33 33 33 33 32 32 32 32 31 31 31 31 30 30 30 30 30 29 29 29 29
35 35 35 35 35 35 35 35 35 35 35 35 34 34 34 34 34 35 34 34 35 35 35 36 36 36 35 35 35 34 33 33 33 33 33 32 32 32 32 31 31 31 31
35 36 35 36 36 36 36 36 37 37 37 37 36 36 36 36 37 37 37 37 37 37 38 38 38 38 38 38 38 37 36 36 35 35 35 34 34 33 33 33 32 32 32
36 36 36 36 37 37 37 37 37 37 37 37 38 38 38 38 38 39 39 40 40 40 40 40 40 40 40 40 40 40 39 39 38 37 37 37 36 36 35 35 35 34 34
36 36 37 37 37 38 38 38 38 38 38 38 39 39 39 40 40 41 41 41 42 42 43 42 42 43 42 42 42 42 42 41 39 39 39 39 39 38 37 36 36 36 36
36 36 37 38 38 39 39 39 39 40 40 41 41 41 42 42 43 43 44 44 44 45 45 45 44 44 44 44 44 44 44 43 42 42 41 41 41 40 39 38 38 38 38
36 37 38 38 39 40 40 41 42 42 43 43 44 44 44 44 45 45 46 46 47 47 47 47 47 47 47 47 47 47 46 46 45 44 44 43 43 42 42 41 40 40 40
37 38 39 40 40 41 42 43 43 44 44 45 46 46 46 46 47 47 48 48 49 49 49 49 49 49 49 49 49 49 48 48 48 47 46 45 45 44 44 44 43 42 42
38 39 40 41 42 43 43 44 45 45 46 47 47 48 48 48 49 49 50 50 51 51 51 51 51 51 51 52 51 51 50 50 50 50 49 48 48 47 47 46 45 45 45
39 40 41 42 43 44 44 45 45 45 46 47 47 48 49 50 50 51 51 52 52 53 53 53 53 53 53 53 53 53 52 52 52 52 51 51 50 49 49 49 48 47 47
40 41 42 42 43 44 44 44 45 45 46 47 47 49 50 51 52 52 53 54 54 54 55 55 56 56 56 56 55 55 54 54 54 54 53 53 52 52 51 51 50 49 49
41 42 43 43 44 45 45 46 46 47 47 48 48 49 50 51 52 54 54 55 56 56 56 57 57 57 57 57 57 58 57 55 55 55 55 54 54 54 53 53 52 52 51
42 43 44 45 45 46 47 47 47 48 49 49 49 49 50 51 53 54 55 56 57 57 58 58 59 59 59 59 59 60 60 59 58 57 56 56 55 55 54 54 54 53 52
43 44 45 45 46 47 48 48 49 49 49 50 50 51 51 53 54 56 56 57 57 58 59 59 60 61 61 60 60 61 61 60 60 59 58 57 57 56 56 55 55 54 54
44 45 45 46 47 48 48 49 50 50 51 52 52 53 53 54 56 57 57 57 57 58 59 60 61 61 61 60 60 60 60 59 59 60 59 57 56 56 56 54 54 54 54
45 46 46 46 47 48 49 50 51 52 52 53 54 55 55 56 57 57 57 57 58 58 58 58 58 58 59 59 59 59 60 59 59 59 59 58 57 56 55 54 54 54 53
Wind_Direction
245 245 246 245 245 246 247 247 245 246 247 248 249 250 251 253 255 257 260 261 263 266 269 270 271 275 279 283 287 290 290 291 294 295 295 298 299 298 298 296 296 295 295
244 244 245 246 246 246 248 248 248 249 249 250 251 252 253 254 256 258 260 262 264 265 267 269 270 272 275 279 282 285 286 288 290 291 291 292 293 294 294 292 291 291 292
244 244 245 246 247 247 248 250 251 252 253 253 254 255 256 257 259 260 262 263 264 265 267 268 269 270 272 275 278 281 283 285 288 286 286 288 288 288 290 289 288 289 289
244 245 245 246 248 249 250 251 252 253 254 255 255 256 257 258 259 261 262 263 263 264 266 268 269 270 271 272 275 278 281 283 287 285 282 282 284 284 285 287 288 287 287
246 246 247 247 249 250 251 252 254 254 255 256 257 257 258 258 259 260 262 263 263 264 265 267 269 270 271 272 273 275 279 280 283 284 282 281 282 283 283 283 284 286 285
248 248 249 249 249 251 252 253 254 255 256 257 258 259 260 260 260 261 262 262 263 264 265 267 269 270 272 273 274 275 277 279 280 281 282 282 281 282 282 282 281 282 283
250 250 251 251 251 252 253 254 255 256 257 258 259 260 260 260 261 261 262 264 264 265 265 267 269 270 272 274 275 275 276 278 278 278 279 281 281 282 282 282 282 282 282
251 252 252 253 253 253 254 255 255 256 257 258 259 260 261 261 262 262 263 264 265 265 266 267 269 270 271 272 274 274 275 277 277 277 277 278 279 280 280 280 282 283 285
253 253 253 253 254 255 255 255 256 257 258 258 260 261 261 261 262 263 264 265 266 266 266 267 269 269 270 271 273 274 274 275 275 276 276 276 277 277 278 278 281 282 284
254 253 253 253 254 255 256 256 256 258 258 259 260 261 262 262 262 263 264 265 266 267 268 269 269 270 271 271 272 273 273 274 275 275 275 276 277 277 277 277 278 280 281
254 254 253 253 253 254 256 257 258 258 259 259 260 261 261 262 263 264 265 265 266 267 268 269 270 270 271 271 272 272 272 273 274 275 275 275 275 276 277 277 278 278 279
253 253 253 253 254 255 256 258 259 260 260 261 261 261 262 263 264 265 266 267 267 267 268 269 270 270 270 270 271 271 272 272 273 274 274 274 274 275 276 277 277 277 278
253 253 254 254 254 255 256 258 259 260 261 262 261 262 263 264 265 266 267 267 268 268 269 270 270 271 270 270 270 271 271 271 272 273 273 274 274 275 275 276 276 277 277
254 254 254 255 255 256 257 258 259 260 261 262 263 263 264 265 265 266 267 268 268 268 268 269 269 270 270 269 269 270 270 271 271 271 272 273 274 274 275 275 275 276 276
255 254 254 254 255 256 257 259 260 261 262 263 264 265 265 266 266 267 268 269 269 268 268 268 268 268 268 268 268 269 269 270 270 270 271 272 273 273 274 275 275 275 275
256 255 255 256 257 258 259 260 261 262 263 264 265 266 267 267 267 267 267 268 268 269 268 268 267 267 267 267 268 268 268 268 269 269 270 270 271 272 273 274 274 274 275
256 257 257 257 258 259 260 261 262 263 265 266 266 267 268 268 268 268 268 268 268 268 268 267 266 266 266 266 267 267 267 267 268 268 268 269 270 271 272 272 273 273 273
258 258 258 259 260 261 261 262 263 264 266 267 267 268 268 269 269 269 269 269 269 269 269 268 267 266 266 266 266 266 266 266 267 267 267 268 269 270 271 271 271 272 272
260 260 260 261 262 263 263 263 264 265 266 267 268 268 269 270 270 270 270 270 269 269 269 269 267 267 266 266 266 266 266 266 266 266 267 267 268 269 269 270 271 271 271
260 261 261 262 263 264 264 265 265 266 267 268 269 269 269 270 270 270 270 270 270 270 270 269 268 268 267 266 266 266 266 267 267 267 267 267 267 268 268 269 270 270 271
262 262 263 264 264 265 265 266 266 267 268 269 270 270 270 271 271 271 271 271 271 270 270 269 269 268 267 266 266 265 266 266 266 266 267 267 267 267 267 269 269 269 270
263 264 265 265 266 267 267 267 268 268 269 270 271 271 271 272 273 273 272 272 272 271 270 269 269 268 268 267 266 266 265 265 266 266 266 267 267 267 267 268 268 269 269
263 264 265 266 267 268 268 268 269 270 270 270 271 272 272 272 273 274 274 273 272 271 271 270 270 269 268 267 267 267 266 265 265 265 265 265 266 267 267 268 268 268 268
265 265 267 267 268 268 269 270 270 270 270 271 272 272 273 274 275 276 276 276 274 273 272 271 270 269 268 267 266 266 266 266 266 265 264 264 265 265 266 266 267 266 267
266 267 267 268 269 269 270 271 271 271 271 272 272 273 274 275 275 276 276 276 275 274 273 271 270 269 268 267 266 265 266 266 266 267 266 265 264 265 265 265 265 266 266
268 268 269 269 269 270 271 272 272 272 272 273 273 273 274 276 276 276 276 276 276 275 274 272 270 269 268 267 266 266 265 265 265 266 267 266 265 264 265 264 265 267 266
Height
5836 5837 5838 5839 5841 5842 5843 5844 5845 5846 5847 5849 5850 5851 5851 5852 5853 5854 5855 5856 5857 5857 5858 5859 5859 5860 5861 5861 5861 5861 5862 5862 5862 5861 5861 5861 5861 5861 5861 5861 5860 5860 5860
5833 5834 5835 5836 5838 5839 5840 5841 5843 5844 5845 5846 5847 5848 5849 5850 5851 5852 5853 5854 5854 5855 5856 5857 5857 5858 5858 5859 5859 5859 5860 5860 5860 5859 5859 5859 5859 5859 5859 5859 5858 5858 5858
5829 5830 5832 5833 5835 5836 5837 5838 5840 5841 5842 5843 5844 5845 5846 5847 5848 5849 5850 5851 5852 5852 5853 5854 5855 5855 5856 5856 5856 5857 5857 5857 5857 5857 5857 5857 5857 5857 5856 5856 5856 5856 5856
5825 5827 5828 5829 5831 5832 5834 5835 5836 5837 5838 5840 5841 5842 5843 5844 5845 5846 5847 5848 5848 5849 5850 5851 5852 5852 5853 5853 5854 5854 5854 5854 5854 5855 5855 5855 5854 5854 5854 5854 5853 5853 5853
5821 5823 5824 5825 5827 5828 5829 5831 5832 5833 5835 5836 5837 5838 5839 5840 5841 5842 5843 5844 5845 5846 5847 5848 5848 5849 5849 5850 5851 5851 5851 5851 5851 5851 5852 5851 5851 5851 5851 5851 5850 5850 5850
5817 5818 5820 5821 5822 5824 5825 5827 5828 5829 5831 5832 5833 5834 5835 5837 5838 5839 5840 5840 5841 5842 5843 5844 5844 5845 5846 5846 5847 5847 5847 5848 5848 5848 5848 5848 5848 5848 5847 5847 5847 5846 5846
5812 5814 5815 5816 5818 5819 5821 5822 5824 5825 5826 5828 5829 5830 5831 5832 5833 5834 5835 5836 5837 5838 5839 5840 5840 5841 5841 5842 5843 5843 5843 5843 5844 5844 5844 5844 5844 5844 5843 5843 5843 5843 5842
5807 5809 5810 5811 5813 5814 5816 5817 5819 5820 5821 5823 5824 5825 5826 5827 5828 5829 5830 5831 5832 5833 5834 5835 5835 5836 5837 5837 5838 5838 5839 5839 5839 5839 5839 5839 5839 5839 5839 5839 5839 5838 5838
5801 5803 5805 5806 5807 5809 5810 5812 5813 5815 5816 5817 5819 5820 5821 5822 5823 5824 5825 5826 5827 5828 5829 5830 5830 5831 5831 5832 5832 5833 5833 5834 5834 5834 5834 5834 5834 5834 5834 5834 5834 5833 5833
5795 5797 5799 5800 5801 5803 5804 5806 5807 5809 5810 5811 5813 5814 5815 5816 5817 5818 5819 5820 5821 5822 5823 5824 5825 5825 5826 5826 5827 5827 5828 5828 5828 5829 5829 5829 5829 5829 5829 5829 5828 5828 5828
5789 5790 5792 5794 5795 5797 5798 5799 5801 5802 5804 5805 5806 5807 5809 5810 5811 5812 5813 5814 5815 5816 5816 5817 5818 5819 5819 5820 5821 5821 5822 5822 5822 5822 5823 5823 5823 5823 5823 5823 5823 5822 5822
5782 5783 5785 5787 5788 5790 5792 5793 5794 5796 5797 5798 5800 5801 5802 5803 5804 5805 5806 5807 5808 5808 5809 5810 5811 5812 5812 5813 5814 5814 5815 5815 5816 5816 5816 5816 5817 5817 5817 5816 5817 5816 5816
5774 5776 5778 5780 5781 5783 5785 5786 5787 5789 5790 5791 5792 5793 5795 5796 5796 5797 5798 5799 5800 5801 5802 5802 5803 5804 5805 5805 5806 5806 5807 5808 5809 5809 5809 5809 5810 5810 5810 5810 5810 5810 5810
5767 5769 5771 5772 5774 5775 5777 5778 5780 5781 5782 5783 5785 5786 5787 5788 5789 5789 5790 5791 5792 5793 5794 5794 5795 5795 5796 5797 5798 5798 5799 5800 5801 5801 5801 5801 5802 5802 5802 5802 5802 5802 5802
5759 5761 5763 5764 5766 5767 5769 5770 5772 5773 5774 5776 5776 5777 5779 5780 5780 5781 5782 5782 5783 5784 5784 5785 5786 5787 5787 5788 5789 5790 5790 5791 5792 5793 5793 5793 5793 5794 5794 5794 5795 5795 5794
5751 5753 5754 5756 5758 5759 5760 5762 5763 5765 5766 5767 5768 5769 5769 5770 5771 5772 5772 5773 5773 5774 5774 5775 5776 5777 5778 5779 5779 5780 5781 5782 5783 5783 5784 5784 5785 5785 5785 5786 5786 5786 5786
5743 5745 5746 5748 5749 5750 5752 5753 5754 5756 5757 5758 5759 5759 5760 5760 5761 5762 5762 5763 5763 5763 5764 5764 5765 5766 5767 5768 5769 5770 5771 5772 5773 5773 5774 5775 5775 5776 5776 5776 5777 5777 5777
5734 5736 5737 5739 5740 5741 5742 5744 5745 5746 5747 5748 5748 5749 5749 5750 5750 5751 5751 5752 5752 5752 5752 5753 5754 5755 5756 5757 5758 5759 5760 5761 5762 5763 5763 5764 5765 5765 5766 5766 5766 5767 5767
5724 5726 5728 5729 5731 5732 5733 5734 5735 5736 5736 5737 5738 5738 5738 5739 5739 5739 5740 5740 5740 5740 5740 5741 5741 5742 5743 5744 5745 5747 5748 5749 5750 5751 5752 5753 5753 5754 5755 5755 5756 5756 5757
5715 5716 5718 5719 5721 5721 5722 5723 5724 5725 5725 5726 5726 5727 5727 5727 5727 5727 5727 5727 5727 5727 5728 5728 5728 5729 5730 5730 5732 5733 5735 5736 5737 5738 5740 5740 5741 5742 5743 5743 5744 5745 5745
5705 5707 5708 5709 5710 5711 5711 5712 5713 5714 5714 5715 5715 5715 5715 5714 5714 5714 5714 5714 5713 5713 5714 5714 5714 5715 5716 5716 5717 5719 5721 5723 5724 5725 5726 5727 5728 5729 5730 5730 5731 5732 5733
5695 5696 5698 5699 5699 5700 5701 5701 5702 5702 5703 5703 5703 5702 5702 5701 5700 5700 5699 5699 5699 5699 5699 5699 5699 5700 5701 5701 5702 5703 5706 5710 5710 5711 5712 5713 5714 5715 5716 5717 5718 5719 5720
5684 5686 5687 5688 5688 5689 5689 5689 5689 5690 5690 5690 5690 5690 5689 5688 5687 5686 5684 5683 5683 5683 5684 5683 5683 5684 5685 5686 5686 5686 5689 5692 5695 5698 5698 5699 5699 5700 5702 5702 5703 5704 5705
5673 5674 5675 5676 5676 5677 5677 5677 5677 5677 5677 5678 5677 5677 5676 5674 5673 5671 5670 5668 5668 5668 5668 5667 5667 5667 5668 5670 5670 5670 5672 5674 5676 5680 5684 5684 5685 5686 5687 5687 5689 5690 5691
5662 5663 5663 5664 5664 5664 5664 5664 5664 5664 5664 5664 5663 5663 5662 5660 5658 5656 5655 5653 5653 5652 5651 5651 5650 5650 5650 5652 5654 5655 5655 5657 5658 5660 5665 5669 5669 5670 5671 5672 5673 5675 5676
5650 5651 5651 5651 5652 5652 5651 5651 5650 5650 5649 5649 5648 5648 5647 5645 5643 5642 5640 5638 5637 5636 5635 5634 5633 5633 5634 5635 5637 5638 5639 5640 5643 5643 5646 5650 5653 5656 5655 5656 5658 5660 5661